Regional Weather Roundup
Issued by NWS

Home | Current Version | Previous Version | Graphics & Text | Print | Product List | Glossary On
Versions: 1 2 3 4 5 6 7 8 9 10 11 12 13 14 15 16 17 18 19 20 21 22 23 24 25 26 27 28 29 30 31 32 33 34 35 36 37 38 39 40 41 42 43 44 45 46 47 48 49 50
000
ASUS43 KBIS 242201
RWRND

NORTH DAKOTA REGIONAL WEATHER ROUNDUP
NATIONAL WEATHER SERVICE BISMARCK ND
500 PM CDT FRI APR 24 2015

NOTE: "FAIR" INDICATES FEW OR NO CLOUDS BELOW 12,000 FEET WITH NO
SIGNIFICANT WEATHER AND/OR OBSTRUCTIONS TO VISIBILITY.


NDZ001>003-009>011-017-242300-
NORTHWEST NORTH DAKOTA

CITY           SKY/WX    TMP DP  RH WIND       PRES   REMARKS
WILLISTON      SUNNY     69  31  24 E9        29.60F
MINOT          SUNNY     63  34  33 E10       29.64S
MINOT AFB      SUNNY     62  35  36 E7        29.63F
$$

NDZ018>021-031>035-040>046-242300-
SOUTHWEST NORTH DAKOTA

CITY           SKY/WX    TMP DP  RH WIND       PRES   REMARKS
BISMARCK       SUNNY     67  39  35 E10       29.60S
DICKINSON      SUNNY     68  33  27 NE12      29.57F
GARRISON         N/A     65  37  35 E10       29.62S
HETTINGER ARPT SUNNY     70  31  23 NE12G17   29.58F
$$

NDZ004>008-012>016-024-026-027-054-242300-
NORTHEAST NORTH DAKOTA

CITY           SKY/WX    TMP DP  RH WIND       PRES   REMARKS
GRAND FORKS    CLOUDY    54  39  57 SE13      29.73F
GRND FRKS AFB  CLOUDY    54  39  55 E12       29.73S
DEVILS LAKE    SUNNY     57  39  51 SE15      29.68S
$$

NDZ022-023-025-028>030-036>039-047>053-242300-
SOUTHEAST NORTH DAKOTA

CITY           SKY/WX    TMP DP  RH WIND       PRES   REMARKS
FARGO          CLOUDY    53  42  66 E13       29.71R
JAMESTOWN      MOSUNNY   61  41  47 E14       29.64S
$$




USA.gov is the U.S. government's official web portal to all federal, state and local government web resources and services.